Flag for U.S.A. Weather past 2 weeks in Corpus Christi, Texas, U.S.A.

Now
70 °F

Passing clouds.


Feels Like: 65 °F
Forecast: 69 / 85 °F
Wind: 7 mph from South

Location: Corpus Christi International Airport

Current Time: Apr 18, 2015 at 11:44:29 PM

Latest Report: Apr 18, 2015 at 10:51 PM


Visibility: 9 mi

Pressure: 29.80 "Hg

Humidity: 93%

Dew point: 68 °F

Location of Corpus ChristiLocation

Historic Weather in Corpus Christi — Graph

°F

Corpus Christi temperature yesterday

Maximum temperature yesterday: 81 °F (at 10:51 AM)
Minimum temperature yesterday: 68 °F (at 11:59 PM)
Average temperature yesterday: 76 °F

Past Weeks' High & Low Weather Summary

 TemperatureHumidityPressure
High85 °F (Apr 7, 2:51 PM)97% (Apr 5, 3:51 AM)30.21 "Hg (Apr 5, 3:51 AM)
Low64 °F (Apr 4, 9:51 AM)55% (Apr 7, 3:51 PM)29.77 "Hg (Apr 18, 6:51 PM)
Average74 °F85%29.93 "Hg
* Reported Apr 3 9:51 PM — Apr 18 9:51 PM, Corpus Christi, Weather by CustomWeather, © 2015

Note: Actual official high and low records may vary slightly from our data, if they occured in-between our weather recording intervals... More about our weather records

Advertising

Corpus Christi weather history for previous 24 hours

 ConditionsComfort  
Time TempWeatherWind HumidityBarometerVisibility
9:51 PM
Sat, Apr 18
70 °FPassing clouds.7 mph90%29.80 "Hg10 mi
8:51 PM71 °FPassing clouds.10 mph90%29.79 "Hg10 mi
7:51 PM73 °FScattered clouds.8 mph84%29.78 "Hg10 mi
6:51 PM74 °FScattered clouds.8 mph76%29.77 "Hg10 mi
5:51 PM71 °FPartly sunny.16 mph81%29.78 "Hg10 mi
4:51 PM73 °FBroken clouds.17 mph79%29.79 "Hg10 mi
3:51 PM71 °FBroken clouds.10 mph81%29.79 "Hg10 mi
3:00 PM67 °FHeavy rain. Fog.23 mph90%29.85 "Hg1 mi
1:51 PM73 °FCloudy.12 mph88%29.79 "Hg10 mi
1:04 PM73 °FBroken clouds.15 mph90%29.81 "Hg10 mi
12:51 PM71 °FThunderstorms. Mostly cloudy.13 mph93%29.83 "Hg10 mi
11:51 AM72 °FLight rain. Partly sunny.13 mph87%29.86 "Hg10 mi
11:02 AM72 °FCloudy.10 mph87%29.87 "Hg10 mi
10:51 AM72 °FCloudy.12 mph91%29.85 "Hg10 mi
9:51 AM71 °FMostly cloudy.7 mph93%29.87 "Hg9 mi
8:51 AM71 °FMostly cloudy.5 mph93%29.86 "Hg10 mi
7:51 AM71 °FPartly cloudy.7 mph93%29.81 "Hg8 mi
6:51 AM70 °FPartly cloudy.3 mph93%29.81 "Hg10 mi
5:51 AM70 °FMostly cloudy.7 mph90%29.80 "Hg10 mi
4:51 AM70 °FOvercast.8 mph90%29.78 "Hg10 mi
3:51 AM70 °FMostly cloudy.7 mph93%29.80 "Hg10 mi
2:51 AM70 °FOvercast.10 mph90%29.82 "Hg10 mi
1:51 AM69 °FMostly cloudy.8 mph93%29.85 "Hg10 mi
12:51 AM69 °FMostly cloudy.13 mph90%29.83 "Hg10 mi
11:59 PM
Fri, Apr 17
68 °FLight rain. Partly cloudy.6 mph96%29.90 "Hg9 mi
Weather by CustomWeather, © 2015

See weather overviewHow to use our weather pages